Aérodrome :
LOGIN :

S'inscrire | Disclaimer

   EN    FR    IT 

 










Légende :    VFR   VFR Marginal   IFR   IFR Intensif   IFR Très Intensif
Visi : 
Plafond : 
>= 8 km
>= 3000ft
5 à 8 km
1000 à 3000 ft
1500m à 5 km
500 à 1000 ft
800 à 1500m
200 à 500 ft
< 800m
< 200 ft
Symboles :   Orages  Brouillard  Fortes neiges  Fortes précipitations  Vent > 20 kt
SIGMETs :   Divers  Orages  Givrage  Turbulence  Onde Orograph.  Cendres Volcan.







- Altitude de l'aérodrome : 1521 ft
- Code IATA : NCY
- Voir les cartes d'approche


LFLP - Annecy

DERNIER METAR :
  • 170130Z AUTO 03005KT 9000 NSC 07/05 Q1027

METARs EXPIRÉS :
  • 170100Z AUTO 36004KT 320V020 CAVOK 08/06 Q1027
  • 170030Z AUTO VRB03KT CAVOK 07/05 Q1027
  • 170000Z AUTO 02004KT 340V040 CAVOK 08/06 Q1027
  • 162330Z AUTO 03003KT CAVOK 08/06 Q1027
  • 162300Z AUTO 35004KT CAVOK 08/06 Q1027

TAF AMD TAF LFLP
Valide du 16 à 19h jusqu'au 17 à 15h UTC


161906Z 1619/1715 VRB03KT CAVOK
Pas de NOTAMs connus pour ce terrain.



MET'MAP, la Météo Aéronautique d'un coup d'oeil ! - Copyright ORBIFLY Décembre 2007 - Disclaimer

ORBIFLY MET'MAP TEAM :

Programmation & Développement : Alexandra Zaïnal
Conception & Développement : Baudouin d'Aumeries
Co-Programmation & Développement : Marc-Olivier Méhu
Soutien technique & logistique : Manuel Goepfert

Contact : metmap@orbifly.com




SOURCES & CREDITS :

   NOAA